EW6442 Weather Reports


time (UTC)temp
C
wind
direction
speed
KPH
gust
KPH
rain 1hr
cm
rain 24hr
cm
rain mn
cm
humidity
%
barometer
mb
20260506201555 34 117 1.6 14.5 0.00 0.00 0.00 7 1011.8
20260506201057 33 78 4.8 14.5 0.00 0.00 0.00 6 1011.9
20260506200557 34 24 6.4 16.1 0.00 0.00 0.00 7 1011.9
20260506200056 33 359 6.4 16.1 0.00 0.00 0.00 7 1011.9
20260506195551 33 322 6.4 14.5 0.00 0.00 0.00 7 1012.1
20260506195022 33 52 1.6 17.7 0.00 0.00 0.00 7 1012.1
20260506194525 33 330 4.8 12.9 0.00 0.00 0.00 7 1012.3
20260506194022 33 269 1.6 17.7 0.00 0.00 0.00 7 1012.4
20260506193520 33 10 3.2 19.3 0.00 0.00 0.00 7 1012.4
20260506193032 33 21 9.7 19.3 0.00 0.00 0.00 7 1012.5
20260506192519 33 4 3.2 12.9 0.00 0.00 0.00 7 1012.5
20260506192014 33 325 1.6 11.3 0.00 0.00 0.00 7 1012.6
20260506191513 33 316 1.6 14.5 0.00 0.00 0.00 7 1012.6
20260506191013 32 328 3.2 14.5 0.00 0.00 0.00 7 1012.7
20260506190511 32 45 4.8 17.7 0.00 0.00 0.00 7 1012.7
20260506190012 32 59 8.0 17.7 0.00 0.00 0.00 7 1012.7
20260506185512 32 335 6.4 16.1 0.00 0.00 0.00 7 1012.9
20260506185010 32 320 3.2 9.7 0.00 0.00 0.00 7 1012.9
20260506184509 32 348 3.2 9.7 0.00 0.00 0.00 7 1012.9
20260506184008 32 311 3.2 14.5 0.00 0.00 0.00 7 1013.1
20260506183512 32 354 4.8 14.5 0.00 0.00 0.00 7 1013.1
20260506183008 32 55 3.2 16.1 0.00 0.00 0.00 7 1013.1
20260506182511 32 86 6.4 16.1 0.00 0.00 0.00 7 1013.2
20260506182006 32 359 4.8 14.5 0.00 0.00 0.00 7 1013.3
20260506181505 32 322 3.2 8.0 0.00 0.00 0.00 7 1013.4
20260506181006 31 149 1.6 8.0 0.00 0.00 0.00 7 1013.4
20260506180506 31 359 3.2 14.5 0.00 0.00 0.00 7 1013.4
20260506180008 31 359 6.4 14.5 0.00 0.00 0.00 7 1013.5
20260506175505 31 40 4.8 12.9 0.00 0.00 0.00 8 1013.5
20260506175005 31 77 4.8 14.5 0.00 0.00 0.00 7 1013.6
20260506174505 31 359 6.4 14.5 0.00 0.00 0.00 7 1013.7
20260506174005 31 4 4.8 14.5 0.00 0.00 0.00 7 1013.9
20260506173509 31 70 3.2 16.1 0.00 0.00 0.00 7 1014.1
20260506173005 31 70 6.4 19.3 0.00 0.00 0.00 7 1014.4
20260506172505 31 60 6.4 19.3 0.00 0.00 0.00 7 1014.3
20260506172003 31 73 3.2 16.1 0.00 0.00 0.00 7 1014.3
20260506171503 31 62 8.0 16.1 0.00 0.00 0.00 7 1014.4
20260506171006 31 22 1.6 12.9 0.00 0.00 0.00 7 1014.3
20260506170502 31 359 3.2 12.9 0.00 0.00 0.00 7 1014.4
20260506170002 31 176 4.8 12.9 0.00 0.00 0.00 7 1014.5
20260506165502 31 174 1.6 14.5 0.00 0.00 0.00 7 1014.4
20260506165002 31 354 6.4 14.5 0.00 0.00 0.00 7 1014.5
20260506164509 30 131 3.2 11.3 0.00 0.00 0.00 7 1014.4
20260506164003 30 121 1.6 16.1 0.00 0.00 0.00 7 1014.5
20260506163501 30 110 3.2 16.1 0.00 0.00 0.00 7 1014.5
20260506163004 30 62 4.8 14.5 0.00 0.00 0.00 7 1014.6
20260506162503 30 53 1.6 12.9 0.00 0.00 0.00 8 1014.6
20260506162001 30 75 4.8 12.9 0.00 0.00 0.00 8 1014.6
20260506161600 30 55 3.2 9.7 0.00 0.00 0.00 8 1014.6
20260506161102 30 68 3.2 14.5 0.00 0.00 0.00 8 1014.7
20260506160558 30 141 4.8 14.5 0.00 0.00 0.00 8 1014.6
20260506160124 29 147 0.0 12.9 0.00 0.00 0.00 8 1014.7
20260506155558 29 80 4.8 12.9 0.00 0.00 0.00 8 1014.8
20260506155102 29 63 3.2 11.3 0.00 0.00 0.00 8 1014.7
20260506154559 29 64 3.2 11.3 0.00 0.00 0.00 9 1014.8
20260506154058 28 121 3.2 11.3 0.00 0.00 0.00 9 1014.7
20260506153601 28 139 4.8 8.0 0.00 0.00 0.00 8 1014.7
20260506153058 28 88 1.6 8.0 0.00 0.00 0.00 9 1014.7
20260506152557 29 58 1.6 14.5 0.00 0.00 0.00 8 1014.8
20260506152101 29 41 8.0 14.5 0.00 0.00 0.00 9 1014.8
20260506151557 29 8 0.0 3.2 0.00 0.00 0.00 9 1014.8
20260506151055 28 8 0.0 4.8 0.00 0.00 0.00 9 1014.7
20260506150556 28 8 1.6 8.0 0.00 0.00 0.00 9 1014.9
20260506150103 28 8 1.6 9.7 0.00 0.00 0.00 9 1014.9
20260506145555 28 354 3.2 9.7 0.00 0.00 0.00 10 1015.0
20260506145054 27 14 1.6 9.7 0.00 0.00 0.00 10 1015.0
20260506144555 27 81 3.2 9.7 0.00 0.00 0.00 10 1015.1
20260506144054 27 49 1.6 9.7 0.00 0.00 0.00 10 1015.0
20260506143554 27 75 1.6 12.9 0.00 0.00 0.00 11 1015.1
20260506143054 27 118 3.2 12.9 0.00 0.00 0.00 11 1015.1
20260506142554 26 127 3.2 11.3 0.00 0.00 0.00 11 1015.1
20260506142053 26 124 4.8 12.9 0.00 0.00 0.00 11 1015.1
20260506141550 26 158 4.8 14.5 0.00 0.00 0.00 10 1015.1
20260506141050 26 149 4.8 12.9 0.00 0.00 0.00 11 1015.1
20260506140550 26 172 3.2 14.5 0.00 0.00 0.00 12 1015.1
20260506140050 26 132 1.6 14.5 0.00 0.00 0.00 12 1015.0
20260506135549 26 122 1.6 8.0 0.00 0.00 0.00 13 1015.1
20260506135049 26 75 0.0 12.9 0.00 0.00 0.00 13 1015.0
20260506134552 25 139 3.2 12.9 0.00 0.00 0.00 13 1015.1
20260506134050 25 143 1.6 4.8 0.00 0.00 0.00 14 1015.0
20260506133548 25 143 1.6 3.2 0.00 0.00 0.00 15 1015.0
20260506133104 25 143 0.0 3.2 0.00 0.00 0.00 15 1014.8
20260506132546 25 143 0.0 1.6 0.00 0.00 0.00 16 1014.8
20260506132047 25 143 0.0 3.2 0.00 0.00 0.00 17 1014.7
20260506131545 24 143 0.0 3.2 0.00 0.00 0.00 16 1014.7
20260506131044 24 143 0.0 1.6 0.00 0.00 0.00 16 1014.6
20260506130544 23 143 0.0 1.6 0.00 0.00 0.00 17 1014.7
20260506130043 23 143 0.0 1.6 0.00 0.00 0.00 17 1014.7
20260506125542 23 143 0.0 1.6 0.00 0.00 0.00 16 1014.5
20260506125042 23 143 0.0 3.2 0.00 0.00 0.00 16 1014.4
20260506124541 22 143 0.0 3.2 0.00 0.00 0.00 16 1014.4
20260506124042 23 143 0.0 3.2 0.00 0.00 0.00 15 1014.2
20260506123542 23 143 0.0 4.8 0.00 0.00 0.00 15 1014.3
20260506123039 23 143 0.0 4.8 0.00 0.00 0.00 14 1014.1
20260506122535 23 143 0.0 6.4 0.00 0.00 0.00 14 1014.2
20260506122038 23 143 0.0 8.0 0.00 0.00 0.00 14 1014.1
20260506121534 23 136 3.2 17.7 0.00 0.00 0.00 13 1014.1
20260506121032 23 143 3.2 8.0 0.00 0.00 0.00 13 1014.1
20260506120532 24 76 0.0 14.5 0.00 0.00 0.00 13 1014.0
20260506120050 24 118 6.4 14.5 0.00 0.00 0.00 13 1014.0
20260506115531 24 127 6.4 16.1 0.00 0.00 0.00 13 1013.9
20260506115030 24 141 8.0 16.1 0.00 0.00 0.00 13 1013.8
20260506114534 24 118 6.4 19.3 0.00 0.00 0.00 13 1013.8
20260506114029 24 119 8.0 19.3 0.00 0.00 0.00 13 1013.7
20260506113529 24 121 6.4 17.7 0.00 0.00 0.00 13 1013.6
20260506113029 24 122 8.0 16.1 0.00 0.00 0.00 13 1013.7
20260506112529 24 120 6.4 17.7 0.00 0.00 0.00 13 1013.7
20260506112027 24 132 8.0 17.7 0.00 0.00 0.00 13 1013.7
20260506111528 24 104 8.0 17.7 0.00 0.00 0.00 13 1013.6
20260506111028 25 56 6.4 24.1 0.00 0.00 0.00 13 1013.6
20260506110524 25 141 8.0 24.1 0.00 0.00 0.00 12 1013.5
20260506110026 25 147 11.3 20.9 0.00 0.00 0.00 12 1013.5
20260506105529 25 132 9.7 20.9 0.00 0.00 0.00 13 1013.4
20260506105023 25 100 3.2 17.7 0.00 0.00 0.00 12 1013.3
20260506104535 25 164 8.0 24.1 0.00 0.00 0.00 12 1013.2
20260506104024 25 154 11.3 24.1 0.00 0.00 0.00 12 1013.1
20260506103522 25 124 8.0 29.0 0.00 0.00 0.00 12 1013.1
20260506103036 25 137 16.1 29.0 0.00 0.00 0.00 12 1013.1
20260506102524 25 155 9.7 27.4 0.00 0.00 0.00 12 1012.8
20260506102021 25 151 9.7 24.1 0.00 0.00 0.00 13 1012.8
20260506101521 25 45 12.9 24.1 0.00 0.00 0.00 13 1012.7
20260506101018 25 116 11.3 27.4 0.00 0.00 0.00 13 1012.5
20260506100520 25 136 12.9 24.1 0.00 0.00 0.00 13 1012.5
20260506100019 25 117 9.7 24.1 0.00 0.00 0.00 13 1012.4
20260506095519 25 141 11.3 25.7 0.00 0.00 0.00 12 1012.3
20260506095020 26 135 11.3 27.4 0.00 0.00 0.00 12 1012.4
20260506094518 25 125 11.3 24.1 0.00 0.00 0.00 12 1012.3
20260506094017 26 139 9.7 22.5 0.00 0.00 0.00 12 1012.2
20260506093517 25 137 6.4 19.3 0.00 0.00 0.00 12 1012.2
20260506093021 25 128 8.0 20.9 0.00 0.00 0.00 12 1012.1
20260506092518 25 125 6.4 20.9 0.00 0.00 0.00 12 1012.0
20260506092016 25 130 3.2 14.5 0.00 0.00 0.00 13 1011.9
20260506091518 25 129 6.4 14.5 0.00 0.00 0.00 13 1011.9
20260506091014 25 116 4.8 12.9 0.00 0.00 0.00 13 1011.7
20260506090514 25 119 3.2 12.9 0.00 0.00 0.00 13 1011.7
20260506090014 25 127 3.2 16.1 0.00 0.00 0.00 13 1011.7
20260506085513 25 95 6.4 16.1 0.00 0.00 0.00 13 1011.7
20260506085015 25 128 3.2 14.5 0.00 0.00 0.00 14 1011.6
20260506084525 24 122 3.2 14.5 0.00 0.00 0.00 14 1011.5
20260506084017 24 97 3.2 11.3 0.00 0.00 0.00 14 1011.6
20260506083513 24 125 1.6 11.3 0.00 0.00 0.00 15 1011.4
20260506083013 24 76 0.0 9.7 0.00 0.00 0.00 15 1011.3
20260506082512 24 98 1.6 9.7 0.00 0.00 0.00 15 1011.2
20260506082012 24 122 1.6 6.4 0.00 0.00 0.00 16 1011.1
20260506081515 24 122 3.2 11.3 0.00 0.00 0.00 16 1011.1
20260506081114 24 122 1.6 11.3 0.00 0.00 0.00 17 1011.1
20260506080542 23 139 4.8 8.0 0.00 0.00 0.00 17 1011.2
20260506073039 24 216 0.0 6.4 0.00 0.00 0.00 21 1011.3
20260506072539 24 218 1.6 6.4 0.00 0.00 0.00 20 1011.4
20260506072039 24 181 1.6 4.8 0.00 0.00 0.00 21 1011.4
20260506071539 24 216 0.0 9.7 0.00 0.00 0.00 22 1011.6
20260506071038 24 218 1.6 11.3 0.00 0.00 0.00 20 1011.5
20260506070538 24 156 6.4 11.3 0.00 0.00 0.00 20 1011.6
20260506062509 23 144 3.2 11.3 0.00 0.00 0.00 23 1011.9
20260506062008 23 161 4.8 8.0 0.00 0.00 0.00 25 1012.0
20260506061507 23 156 1.6 8.0 0.00 0.00 0.00 27 1011.9
20260506061006 23 156 1.6 3.2 0.00 0.00 0.00 27 1011.7
20260506060504 23 198 0.0 3.2 0.00 0.00 0.00 28 1011.8
20260506051058 25 198 0.0 0.0 0.00 0.00 0.00 29 1011.9
20260506050554 25 199 0.0 3.2 0.00 0.00 0.00 29 1011.8
20260506045052 25 199 3.2 6.4 0.00 0.00 0.00 28 1011.8
20260506044552 25 145 1.6 6.4 0.00 0.00 0.00 28 1011.8
20260506044051 25 145 3.2 6.4 0.00 0.00 0.00 29 1011.7
20260506043551 25 48 0.0 0.0 0.00 0.00 0.00 32 1011.7
20260506043051 25 48 0.0 3.2 0.00 0.00 0.00 31 1011.9
20260506042551 25 48 0.0 3.2 0.00 0.00 0.00 31 1011.8
20260506042053 25 48 0.0 1.6 0.00 0.00 0.00 32 1011.7
20260506041603 25 48 0.0 0.0 0.00 0.00 0.00 36 1011.7
20260506041050 25 48 0.0 0.0 0.00 0.00 0.00 40 1011.6
20260506040547 25 48 0.0 0.0 0.00 0.00 0.00 44 1011.6
20260506040047 25 48 0.0 0.0 0.00 0.00 0.00 45 1011.5
20260506035547 25 48 0.0 0.0 0.00 0.00 0.00 45 1011.4
20260506035046 25 48 0.0 1.6 0.00 0.00 0.00 45 1011.4
20260506034548 25 48 0.0 1.6 0.00 0.00 0.00 45 1011.5
20260506034046 26 48 0.0 3.2 0.00 0.00 0.00 44 1011.4
20260506033545 26 48 0.0 4.8 0.00 0.00 0.00 44 1011.4
20260506033044 26 48 0.0 4.8 0.00 0.00 0.00 45 1011.4
20260506032543 26 48 0.0 4.8 0.00 0.00 0.00 45 1011.4
20260506032042 26 348 0.0 3.2 0.00 0.00 0.00 45 1011.5
20260506031543 26 348 0.0 3.2 0.00 0.00 0.00 45 1011.4
20260506031041 26 348 0.0 4.8 0.00 0.00 0.00 44 1011.6
20260506030542 26 359 0.0 4.8 0.00 0.00 0.00 44 1011.5
20260506030035 27 348 0.0 4.8 0.00 0.00 0.00 43 1011.4
20260506025535 27 348 0.0 6.4 0.00 0.00 0.00 42 1011.4
20260506025032 27 354 3.2 4.8 0.00 0.00 0.00 41 1011.5
20260506024536 27 330 1.6 4.8 0.00 0.00 0.00 38 1011.4
20260506024030 28 359 0.0 4.8 0.00 0.00 0.00 35 1011.4
20260506023529 28 332 0.0 4.8 0.00 0.00 0.00 32 1011.6
20260506023047 28 333 0.0 6.4 0.00 0.00 0.00 29 1011.6
20260506022525 28 333 1.6 6.4 0.00 0.00 0.00 29 1011.5
20260506022027 29 349 0.0 3.2 0.00 0.00 0.00 21 1011.5
20260506021533 29 348 0.0 3.2 0.00 0.00 0.00 19 1011.4
20260506021026 29 348 0.0 0.0 0.00 0.00 0.00 19 1011.2
20260506020521 30 349 0.0 1.6 0.00 0.00 0.00 18 1011.3
20260506020022 30 348 0.0 1.6 0.00 0.00 0.00 18 1011.2
20260506015517 30 348 0.0 4.8 0.00 0.00 0.00 18 1011.4
20260506015016 30 348 1.6 4.8 0.00 0.00 0.00 17 1011.3
20260506014518 30 305 0.0 4.8 0.00 0.00 0.00 17 1011.3
20260506014014 30 305 0.0 4.8 0.00 0.00 0.00 16 1011.2
20260506013513 31 305 0.0 6.4 0.00 0.00 0.00 12 1011.1
20260506013015 31 305 1.6 8.0 0.00 0.00 0.00 11 1011.1
20260506012512 31 19 1.6 8.0 0.00 0.00 0.00 10 1011.0
20260506012010 31 41 3.2 12.9 0.00 0.00 0.00 10 1010.8
20260506011511 31 41 0.0 12.9 0.00 0.00 0.00 10 1010.7
20260506011009 31 56 4.8 11.3 0.00 0.00 0.00 10 1010.6
20260506010508 31 320 4.8 11.3 0.00 0.00 0.00 10 1010.5
20260506010004 32 56 4.8 19.3 0.00 0.00 0.00 10 1010.5
20260506005503 32 64 8.0 19.3 0.00 0.00 0.00 10 1010.5
20260506005002 32 76 3.2 14.5 0.00 0.00 0.00 10 1010.3
20260506004503 32 63 6.4 24.1 0.00 0.00 0.00 10 1010.2
20260506004001 32 66 8.0 24.1 0.00 0.00 0.00 11 1010.3
20260506003600 32 89 8.0 16.1 0.00 0.00 0.00 11 1010.2
20260506003059 33 83 8.0 16.1 0.00 0.00 0.00 10 1010.2
20260506002559 33 66 8.0 16.1 0.00 0.00 0.00 11 1010.2
20260506002502 33 87 4.8 16.1 0.00 0.00 0.00 11 1010.2
20260506002059 33 72 4.8 16.1 0.00 0.00 0.00 11 1010.1
20260506001559 33 316 4.8 25.7 0.00 0.00 0.00 11 1010.1
20260506001058 33 44 9.7 25.7 0.00 0.00 0.00 11 1010.1
20260506000556 33 80 9.7 19.3 0.00 0.00 0.00 11 1010.0
20260506000054 33 359 6.4 14.5 0.00 0.00 0.00 11 1009.9
20260505235553 33 60 8.0 17.7 0.00 0.00 0.00 10 1009.9
20260505235053 34 79 6.4 17.7 0.00 0.00 0.00 10 1009.9
20260505234553 34 70 6.4 14.5 0.00 0.00 0.00 10 1009.9
20260505234052 34 75 6.4 14.5 0.00 0.00 0.00 10 1009.9
20260505233554 34 81 4.8 17.7 0.00 0.00 0.00 11 1010.0
20260505233052 34 72 8.0 20.9 0.00 0.00 0.00 11 1010.0
20260505232551 34 58 9.7 17.7 0.00 0.00 0.00 11 1010.0
20260505232053 34 58 4.8 19.3 0.00 0.00 0.00 11 1010.0
20260505231605 34 51 3.2 20.9 0.00 0.00 0.00 11 1009.9
20260505231050 34 354 6.4 20.9 0.00 0.00 0.00 11 1010.0
20260505230550 34 48 9.7 20.9 0.00 0.00 0.00 11 1009.9
20260505230051 34 88 11.3 24.1 0.00 0.00 0.00 12 1009.9
20260505230049 34 56 11.3 24.1 0.00 0.00 0.00 12 1009.9
20260505225546 34 354 11.3 24.1 0.00 0.00 0.00 11 1010.0
20260505225046 35 73 6.4 19.3 0.00 0.00 0.00 12 1010.0
20260505224545 35 71 8.0 22.5 0.00 0.00 0.00 11 1010.0
20260505224044 35 50 8.0 16.1 0.00 0.00 0.00 11 1010.0
20260505223543 35 67 9.7 19.3 0.00 0.00 0.00 11 1010.1
20260505223045 35 66 4.8 16.1 0.00 0.00 0.00 12 1010.1
20260505223043 35 58 4.8 16.1 0.00 0.00 0.00 12 1010.1
20260505222545 35 25 3.2 19.3 0.00 0.00 0.00 12 1010.1
20260505222042 35 75 8.0 19.3 0.00 0.00 0.00 12 1010.3
20260505221542 34 54 4.8 20.9 0.00 0.00 0.00 12 1010.2
20260505221042 35 60 11.3 24.1 0.00 0.00 0.00 12 1010.4
20260505220540 35 68 6.4 24.1 0.00 0.00 0.00 11 1010.5
20260505220044 35 133 4.8 25.7 0.00 0.00 0.00 12 1010.5
20260505215537 35 81 8.0 20.9 0.00 0.00 0.00 11 1010.5
20260505215037 35 58 4.8 17.7 0.00 0.00 0.00 11 1010.6
20260505214550 35 68 3.2 17.7 0.00 0.00 0.00 10 1010.7
20260505214035 35 105 4.8 16.1 0.00 0.00 0.00 11 1010.5
20260505213533 35 65 4.8 17.7 0.00 0.00 0.00 11 1010.8
20260505213038 35 66 8.0 22.5 0.00 0.00 0.00 12 1010.9
20260505212531 34 4 6.4 22.5 0.00 0.00 0.00 12 1010.9
20260505212033 34 73 6.4 20.9 0.00 0.00 0.00 12 1010.9
20260505211530 34 325 9.7 20.9 0.00 0.00 0.00 12 1011.1
20260505211029 34 54 6.4 25.7 0.00 0.00 0.00 12 1011.0
20260505210530 34 68 11.3 25.7 0.00 0.00 0.00 12 1011.1
20260505210028 35 10 9.7 22.5 0.00 0.00 0.00 12 1011.2
20260505205527 35 70 4.8 20.9 0.00 0.00 0.00 12 1011.3
20260505205023 34 33 4.8 24.1 0.00 0.00 0.00 12 1011.5
20260505204522 34 68 9.7 24.1 0.00 0.00 0.00 12 1011.6
20260505204022 34 39 3.2 16.1 0.00 0.00 0.00 12 1011.5
20260505203521 34 67 4.8 20.9 0.00 0.00 0.00 13 1011.7
20260505203029 34 64 9.7 22.5 0.00 0.00 0.00 13 1011.9
20260505202521 34 51 8.0 22.5 0.00 0.00 0.00 13 1011.8
20260505202021 34 359 4.8 22.5 0.00 0.00 0.00 13 1011.9